DLH1786 EDDM-EPWA

Flight info

Callsign DLH1786
Flight time 1h 13m
Altitude 30000
Route BIBAG3W BIBAG Y133 BEPAS/N0447F350 DCT LEGAZ DCT LAGAR DCT OKENO DCT GOGUS DCT AGAVA
Aircraft A20N/M-SDE2E3FGHIRWXY/LB1

Departure

Time 2026-05-06 16:38
Airport Munich Airport (EDDM)

Arrival

Time 2026-05-06 17:51
Airport Warsaw Chopin Airport (EPWA)
Time Latitude Longitude Altitude Speed Heading
2026-05-06 15:49 48.35526 11.79301 1478 ft 0 kts 263°
2026-05-06 16:26 48.35527 11.79314 1488 ft 2 kts 262°
2026-05-06 16:26 48.35529 11.79339 1477 ft 2 kts 263°
2026-05-06 16:26 48.35531 11.79363 1477 ft 2 kts 263°
2026-05-06 16:27 48.35533 11.79388 1490 ft 2 kts 263°
2026-05-06 16:27 48.35535 11.79412 1498 ft 2 kts 263°
2026-05-06 16:27 48.35541 11.79433 1488 ft 2 kts 202°
2026-05-06 16:27 48.35553 11.79436 1473 ft 1 kts 176°
2026-05-06 16:28 48.35554 11.79436 1473 ft 0 kts 175°
2026-05-06 16:31 48.35541 11.79439 1488 ft 5 kts 172°
2026-05-06 16:31 48.35489 11.79455 1484 ft 9 kts 150°
2026-05-06 16:31 48.35442 11.79517 1486 ft 9 kts 154°
2026-05-06 16:32 48.35385 11.79534 1483 ft 8 kts 173°
2026-05-06 16:32 48.35331 11.79543 1484 ft 8 kts 173°
2026-05-06 16:32 48.35266 11.79555 1485 ft 11 kts 173°
2026-05-06 16:32 48.35178 11.79569 1481 ft 14 kts 174°
2026-05-06 16:33 48.35082 11.79586 1478 ft 14 kts 173°
2026-05-06 16:33 48.34998 11.79626 1478 ft 11 kts 137°
2026-05-06 16:33 48.34962 11.79670 1485 ft 0 kts 161°
2026-05-06 16:34 48.34926 11.79680 1477 ft 9 kts 172°
2026-05-06 16:34 48.34858 11.79694 1485 ft 10 kts 173°
2026-05-06 16:35 48.34793 11.79703 1488 ft 9 kts 175°
2026-05-06 16:35 48.34732 11.79712 1488 ft 8 kts 184°
2026-05-06 16:35 48.34686 11.79664 1482 ft 11 kts 230°
2026-05-06 16:35 48.34626 11.79548 1476 ft 15 kts 233°
2026-05-06 16:36 48.34571 11.79435 1485 ft 13 kts 232°
2026-05-06 16:36 48.34512 11.79315 1476 ft 16 kts 234°
2026-05-06 16:36 48.34447 11.79183 1483 ft 15 kts 234°
2026-05-06 16:36 48.34390 11.79035 1481 ft 20 kts 246°
2026-05-06 16:37 48.34353 11.78804 1485 ft 34 kts 263°
2026-05-06 16:37 48.34299 11.78107 1483 ft 98 kts 263°
2026-05-06 16:37 48.34197 11.76777 1484 ft 157 kts 263°
2026-05-06 16:37 48.34063 11.75053 1862 ft 165 kts 265°
2026-05-06 16:38 48.33973 11.73395 2668 ft 152 kts 266°
2026-05-06 16:38 48.33865 11.71773 3163 ft 165 kts 264°
2026-05-06 16:38 48.33725 11.69925 3448 ft 190 kts 264°
2026-05-06 16:38 48.33555 11.67830 3705 ft 213 kts 263°
2026-05-06 16:39 48.33369 11.65540 4117 ft 225 kts 263°
2026-05-06 16:39 48.33191 11.63164 4599 ft 243 kts 264°
2026-05-06 16:39 48.32997 11.60529 5027 ft 260 kts 263°
2026-05-06 16:39 48.32616 11.57848 5694 ft 266 kts 244°
2026-05-06 16:40 48.31489 11.55668 6449 ft 267 kts 216°
2026-05-06 16:40 48.29813 11.54552 7273 ft 265 kts 188°
2026-05-06 16:40 48.27980 11.54353 8101 ft 266 kts 178°
2026-05-06 16:40 48.26196 11.55097 8828 ft 272 kts 152°
2026-05-06 16:41 48.24811 11.57038 9579 ft 279 kts 126°
2026-05-06 16:41 48.23965 11.59714 10143 ft 294 kts 108°
2026-05-06 16:41 48.23835 11.62898 10434 ft 319 kts 88°
2026-05-06 16:41 48.24157 11.66307 10685 ft 340 kts 82°
2026-05-06 16:42 48.24630 11.69881 10969 ft 358 kts 81°
2026-05-06 16:42 48.25164 11.73603 11422 ft 369 kts 80°
2026-05-06 16:42 48.25720 11.77392 12025 ft 374 kts 80°
2026-05-06 16:42 48.26285 11.81230 12671 ft 379 kts 79°
2026-05-06 16:43 48.26857 11.85120 13321 ft 383 kts 79°
2026-05-06 16:43 48.27435 11.89054 13911 ft 387 kts 79°
2026-05-06 16:43 48.28016 11.93018 14493 ft 392 kts 80°
2026-05-06 16:43 48.28604 11.97036 15074 ft 396 kts 80°
2026-05-06 16:44 48.29188 12.01040 15648 ft 400 kts 80°
2026-05-06 16:44 48.29785 12.05145 16245 ft 404 kts 80°
2026-05-06 16:44 48.30387 12.09294 16836 ft 408 kts 80°
2026-05-06 16:44 48.30996 12.13499 17293 ft 415 kts 81°
2026-05-06 16:45 48.31612 12.17768 17839 ft 421 kts 81°
2026-05-06 16:45 48.32233 12.22083 18364 ft 424 kts 82°
2026-05-06 16:45 48.32857 12.26433 18871 ft 428 kts 82°
2026-05-06 16:45 48.33487 12.30834 19336 ft 432 kts 82°
2026-05-06 16:46 48.34120 12.35266 19850 ft 436 kts 82°
2026-05-06 16:46 48.34756 12.39736 20358 ft 440 kts 82°
2026-05-06 16:46 48.35398 12.44259 20874 ft 443 kts 82°
2026-05-06 16:46 48.36040 12.48802 21392 ft 447 kts 82°
2026-05-06 16:47 48.36688 12.53390 21884 ft 451 kts 82°
2026-05-06 16:47 48.37330 12.57962 22371 ft 454 kts 82°
2026-05-06 16:47 48.37985 12.62630 22860 ft 458 kts 82°
2026-05-06 16:47 48.38644 12.67347 23339 ft 461 kts 82°
2026-05-06 16:48 48.39308 12.72088 23757 ft 465 kts 82°
2026-05-06 16:48 48.40136 12.76832 24162 ft 471 kts 77°
2026-05-06 16:48 48.41130 12.81548 24556 ft 475 kts 75°
2026-05-06 16:48 48.42212 12.86261 24968 ft 479 kts 74°
2026-05-06 16:49 48.43337 12.91002 25360 ft 482 kts 73°
2026-05-06 16:49 48.44475 12.95767 25740 ft 485 kts 73°
2026-05-06 16:49 48.45614 13.00573 26100 ft 488 kts 73°
2026-05-06 16:49 48.46803 13.05372 26401 ft 493 kts 70°
2026-05-06 16:50 48.48392 13.10001 26640 ft 502 kts 59°
2026-05-06 16:50 48.50502 13.14219 26977 ft 507 kts 48°
2026-05-06 16:50 48.53084 13.17761 27306 ft 509 kts 36°
2026-05-06 16:50 48.55049 13.19832 27548 ft 510 kts 32°
2026-05-06 16:51 48.59037 13.23611 28070 ft 511 kts 29°
2026-05-06 16:51 48.62117 13.26340 28409 ft 514 kts 28°
2026-05-06 16:51 48.65218 13.29034 28732 ft 516 kts 28°
2026-05-06 16:51 48.68338 13.31745 29198 ft 516 kts 28°
2026-05-06 16:52 48.71447 13.34470 29609 ft 517 kts 28°
2026-05-06 16:52 48.77651 13.39980 29694 ft 516 kts 28°
2026-05-06 16:53 48.83786 13.45490 29699 ft 515 kts 28°
2026-05-06 16:53 48.89986 13.50939 29707 ft 514 kts 25°
2026-05-06 16:54 48.96136 13.56530 29715 ft 515 kts 30°
2026-05-06 16:54 49.02172 13.62386 29714 ft 513 kts 31°
2026-05-06 16:55 49.08220 13.68194 29719 ft 513 kts 30°
2026-05-06 16:55 49.14288 13.73950 29720 ft 513 kts 30°
2026-05-06 16:56 49.20313 13.79649 29721 ft 511 kts 30°
2026-05-06 16:56 49.26349 13.85373 29723 ft 511 kts 30°
2026-05-06 16:57 49.32388 13.91122 29721 ft 510 kts 30°
2026-05-06 16:57 49.38425 13.96887 29726 ft 511 kts 30°
2026-05-06 16:58 49.44466 14.02675 29729 ft 511 kts 30°
2026-05-06 16:58 49.49481 14.07491 29728 ft 511 kts 30°
2026-05-06 16:59 49.55514 14.13302 29751 ft 511 kts 30°
2026-05-06 16:59 49.62513 14.20065 29733 ft 510 kts 30°
2026-05-06 17:00 49.67546 14.24942 29741 ft 510 kts 30°
2026-05-06 17:00 49.73514 14.30743 29746 ft 510 kts 30°
2026-05-06 17:01 49.79517 14.36591 29746 ft 509 kts 30°
2026-05-06 17:01 49.85504 14.42443 29750 ft 508 kts 31°
2026-05-06 17:02 49.91478 14.48298 29754 ft 508 kts 31°
2026-05-06 17:02 49.97456 14.54175 29772 ft 508 kts 31°
2026-05-06 17:03 50.03414 14.60051 29774 ft 506 kts 31°
2026-05-06 17:03 50.09351 14.65924 29774 ft 506 kts 31°
2026-05-06 17:04 50.15248 14.71774 29773 ft 506 kts 31°
2026-05-06 17:04 50.21180 14.77676 29770 ft 506 kts 31°
2026-05-06 17:05 50.27112 14.83595 29765 ft 506 kts 31°
2026-05-06 17:05 50.33050 14.89540 29761 ft 506 kts 31°
2026-05-06 17:06 50.38941 14.95451 29766 ft 506 kts 32°
2026-05-06 17:06 50.44808 15.01360 29762 ft 497 kts 32°
2026-05-06 17:07 50.50614 15.07225 29758 ft 496 kts 32°
2026-05-06 17:07 50.56418 15.13106 29759 ft 496 kts 32°
2026-05-06 17:08 50.62182 15.18961 29764 ft 496 kts 32°
2026-05-06 17:08 50.67978 15.24867 29774 ft 496 kts 32°
2026-05-06 17:09 50.73773 15.30791 29771 ft 496 kts 33°
2026-05-06 17:09 50.78920 15.37994 29773 ft 495 kts 52°
2026-05-06 17:09 50.80829 15.42509 29780 ft 494 kts 64°
2026-05-06 17:10 50.82328 15.47402 29773 ft 495 kts 68°
2026-05-06 17:10 50.84994 15.57467 29771 ft 496 kts 71°
2026-05-06 17:11 50.87498 15.67552 29782 ft 495 kts 71°
2026-05-06 17:11 50.90030 15.77711 29780 ft 498 kts 71°
2026-05-06 17:12 50.92599 15.87930 29785 ft 499 kts 71°
2026-05-06 17:12 50.95179 15.98180 29795 ft 500 kts 71°
2026-05-06 17:13 50.97749 16.08426 29780 ft 500 kts 71°
2026-05-06 17:13 51.00291 16.18618 29778 ft 500 kts 71°
2026-05-06 17:14 51.02840 16.28887 29751 ft 500 kts 71°
2026-05-06 17:14 51.05386 16.39200 29774 ft 502 kts 71°
2026-05-06 17:15 51.07931 16.49551 29769 ft 503 kts 71°
2026-05-06 17:15 51.10466 16.59908 29780 ft 502 kts 71°
2026-05-06 17:16 51.12990 16.70271 29772 ft 501 kts 71°
2026-05-06 17:16 51.15500 16.80623 29770 ft 501 kts 72°
2026-05-06 17:17 51.17983 16.90917 29745 ft 501 kts 71°
2026-05-06 17:17 51.20475 17.01295 29750 ft 500 kts 72°
2026-05-06 17:18 51.22957 17.11681 29752 ft 500 kts 72°
2026-05-06 17:18 51.25427 17.22068 29774 ft 500 kts 72°
2026-05-06 17:19 51.27890 17.32473 29769 ft 502 kts 72°
2026-05-06 17:19 51.30348 17.42910 29772 ft 502 kts 72°
2026-05-06 17:20 51.32783 17.53289 29765 ft 501 kts 72°
2026-05-06 17:20 51.35220 17.63740 29770 ft 501 kts 72°
2026-05-06 17:21 51.37648 17.74197 29766 ft 501 kts 72°
2026-05-06 17:21 51.40065 17.84661 29784 ft 501 kts 72°
2026-05-06 17:22 51.42479 17.95164 29768 ft 503 kts 72°
2026-05-06 17:22 51.44889 18.05701 29755 ft 503 kts 72°
2026-05-06 17:23 51.47285 18.16225 29773 ft 502 kts 72°
2026-05-06 17:23 51.49667 18.26746 29765 ft 502 kts 73°
2026-05-06 17:24 51.52041 18.37280 29772 ft 502 kts 73°
2026-05-06 17:24 51.54403 18.47817 29780 ft 501 kts 73°
2026-05-06 17:25 51.56591 18.58451 29764 ft 499 kts 83°
2026-05-06 17:25 51.57164 18.69428 29763 ft 494 kts 92°
2026-05-06 17:26 51.57342 18.80458 29770 ft 493 kts 94°
2026-05-06 17:26 51.57428 18.91475 29477 ft 493 kts 94°
2026-05-06 17:26 51.57472 18.96986 29193 ft 494 kts 94°
2026-05-06 17:27 51.57521 19.02510 28910 ft 495 kts 93°
2026-05-06 17:27 51.57573 19.08042 28633 ft 495 kts 93°
2026-05-06 17:27 51.57626 19.13575 28358 ft 496 kts 93°
2026-05-06 17:27 51.57678 19.19123 28084 ft 496 kts 93°
2026-05-06 17:28 51.57729 19.24672 27807 ft 497 kts 93°
2026-05-06 17:28 51.57777 19.30237 27533 ft 497 kts 93°
2026-05-06 17:28 51.57824 19.35790 26666 ft 497 kts 93°
2026-05-06 17:28 51.57865 19.41407 25576 ft 505 kts 93°
2026-05-06 17:29 51.57904 19.47039 24770 ft 503 kts 92°
2026-05-06 17:29 51.57942 19.52679 23896 ft 504 kts 92°
2026-05-06 17:29 51.57977 19.58238 23057 ft 503 kts 92°
2026-05-06 17:29 51.58011 19.63810 22473 ft 493 kts 92°
2026-05-06 17:30 51.58041 19.69275 21857 ft 485 kts 92°
2026-05-06 17:30 51.58069 19.74667 21237 ft 478 kts 93°
2026-05-06 17:30 51.58093 19.79957 20729 ft 469 kts 93°
2026-05-06 17:30 51.58114 19.85145 20240 ft 460 kts 93°
2026-05-06 17:31 51.58133 19.90212 19974 ft 446 kts 93°
2026-05-06 17:31 51.58146 19.95124 19757 ft 432 kts 94°
2026-05-06 17:31 51.58053 19.99865 19553 ft 418 kts 96°
2026-05-06 17:31 51.57911 20.04465 19335 ft 406 kts 97°
2026-05-06 17:32 51.57761 20.08972 18804 ft 404 kts 97°
2026-05-06 17:32 51.57611 20.13462 18391 ft 399 kts 97°
2026-05-06 17:32 51.57463 20.17898 17914 ft 395 kts 97°
2026-05-06 17:32 51.57316 20.22286 17374 ft 392 kts 97°
2026-05-06 17:33 51.57171 20.26647 16851 ft 389 kts 97°
2026-05-06 17:33 51.57067 20.30921 16379 ft 394 kts 92°
2026-05-06 17:33 51.57432 20.35435 15902 ft 420 kts 77°
2026-05-06 17:33 51.58604 20.39793 15446 ft 429 kts 61°
2026-05-06 17:34 51.60248 20.43792 15004 ft 428 kts 53°
2026-05-06 17:34 51.62108 20.47504 14561 ft 424 kts 49°
2026-05-06 17:34 51.64055 20.51063 14129 ft 421 kts 48°
2026-05-06 17:34 51.66010 20.54550 13707 ft 418 kts 48°
2026-05-06 17:35 51.67939 20.58016 13248 ft 415 kts 48°
2026-05-06 17:35 51.69841 20.61498 12773 ft 411 kts 49°
2026-05-06 17:35 51.71696 20.64960 12466 ft 406 kts 49°
2026-05-06 17:36 51.75338 20.71884 11958 ft 404 kts 50°
2026-05-06 17:36 51.77142 20.75345 11705 ft 402 kts 50°
2026-05-06 17:36 51.78934 20.78796 11453 ft 400 kts 50°
2026-05-06 17:36 51.80715 20.82226 11203 ft 398 kts 50°
2026-05-06 17:37 51.82489 20.85647 10953 ft 396 kts 50°
2026-05-06 17:37 51.84232 20.89012 10702 ft 395 kts 50°
2026-05-06 17:37 51.85994 20.92416 10465 ft 393 kts 50°
2026-05-06 17:37 51.87522 20.96140 10231 ft 393 kts 66°
2026-05-06 17:38 51.88264 21.00364 9847 ft 389 kts 82°
2026-05-06 17:38 51.88563 21.04639 9296 ft 382 kts 86°
2026-05-06 17:38 51.88793 21.08867 8795 ft 373 kts 86°
2026-05-06 17:38 51.89015 21.13022 8161 ft 368 kts 86°
2026-05-06 17:39 51.89235 21.17130 7537 ft 364 kts 86°
2026-05-06 17:39 51.89454 21.21189 6920 ft 360 kts 86°
2026-05-06 17:39 51.89671 21.25207 6316 ft 356 kts 86°
2026-05-06 17:39 51.89884 21.29171 5690 ft 351 kts 86°
2026-05-06 17:40 51.90094 21.33093 5069 ft 348 kts 86°
2026-05-06 17:40 51.90300 21.36972 4470 ft 344 kts 86°
2026-05-06 17:40 51.90499 21.40776 4100 ft 332 kts 86°
2026-05-06 17:40 51.90690 21.44400 4008 ft 313 kts 86°
2026-05-06 17:41 51.90873 21.47801 4002 ft 293 kts 87°
2026-05-06 17:41 51.91186 21.50969 4002 ft 281 kts 71°
2026-05-06 17:41 51.92209 21.53576 4005 ft 280 kts 43°
2026-05-06 17:41 51.93867 21.55184 4002 ft 279 kts 15°
2026-05-06 17:42 51.95773 21.55402 3998 ft 275 kts 347°
2026-05-06 17:42 51.97494 21.54201 3998 ft 268 kts 319°
2026-05-06 17:42 51.98632 21.51897 4000 ft 261 kts 290°
2026-05-06 17:42 51.99008 21.49065 4003 ft 257 kts 271°
2026-05-06 17:43 51.99039 21.46163 4001 ft 257 kts 267°
2026-05-06 17:43 51.99017 21.43261 4001 ft 257 kts 267°
2026-05-06 17:43 51.98978 21.40362 4000 ft 257 kts 265°
2026-05-06 17:43 51.98923 21.37475 3998 ft 251 kts 266°
2026-05-06 17:44 51.98895 21.34751 3995 ft 232 kts 266°
2026-05-06 17:44 51.98879 21.32244 4007 ft 221 kts 267°
2026-05-06 17:44 51.98857 21.29629 3888 ft 242 kts 267°
2026-05-06 17:44 51.98829 21.26855 3322 ft 248 kts 267°
2026-05-06 17:45 51.98793 21.24067 3044 ft 243 kts 267°
2026-05-06 17:45 51.98757 21.21403 3001 ft 228 kts 266°
2026-05-06 17:45 51.98585 21.18948 2994 ft 210 kts 254°
2026-05-06 17:45 51.98049 21.16840 3004 ft 198 kts 238°
2026-05-06 17:46 51.97623 21.14763 2996 ft 201 kts 273°
2026-05-06 17:46 51.98209 21.12820 3029 ft 189 kts 314°
2026-05-06 17:46 51.99270 21.11748 3008 ft 170 kts 329°
2026-05-06 17:46 52.00289 21.10934 3019 ft 158 kts 328°
2026-05-06 17:47 52.01249 21.10110 3025 ft 151 kts 327°
2026-05-06 17:47 52.02140 21.09334 3014 ft 142 kts 326°
2026-05-06 17:47 52.03004 21.08577 3006 ft 141 kts 326°
2026-05-06 17:47 52.03869 21.07816 2910 ft 142 kts 326°
2026-05-06 17:48 52.04735 21.07057 2729 ft 141 kts 326°
2026-05-06 17:48 52.05581 21.06321 2540 ft 139 kts 326°
2026-05-06 17:48 52.06430 21.05581 2356 ft 138 kts 326°
2026-05-06 17:48 52.07275 21.04845 2181 ft 137 kts 326°
2026-05-06 17:49 52.08110 21.04116 1995 ft 136 kts 326°
2026-05-06 17:49 52.08942 21.03390 1818 ft 136 kts 326°
2026-05-06 17:49 52.09774 21.02663 1640 ft 136 kts 326°
2026-05-06 17:49 52.10603 21.01938 1459 ft 135 kts 326°
2026-05-06 17:50 52.11431 21.01215 1288 ft 135 kts 327°
2026-05-06 17:50 52.12255 21.00495 1100 ft 134 kts 327°
2026-05-06 17:50 52.13074 20.99780 932 ft 133 kts 328°
2026-05-06 17:50 52.13887 20.99065 738 ft 133 kts 329°
2026-05-06 17:51 52.14696 20.98348 570 ft 132 kts 330°
2026-05-06 17:51 52.15503 20.97639 387 ft 129 kts 329°
2026-05-06 17:51 52.16232 20.97010 357 ft 97 kts 333°
2026-05-06 17:51 52.16594 20.96695 357 ft 38 kts 332°
2026-05-06 17:52 52.16822 20.96495 362 ft 38 kts 331°
2026-05-06 17:52 52.17065 20.96281 355 ft 39 kts 334°
2026-05-06 17:52 52.17274 20.96244 354 ft 27 kts
2026-05-06 17:52 52.17381 20.96267 355 ft 8 kts 26°
2026-05-06 17:53 52.17395 20.96286 361 ft 0 kts 58°
2026-05-06 17:53 52.17405 20.96316 360 ft 7 kts 61°
2026-05-06 17:53 52.17434 20.96405 357 ft 11 kts 62°
2026-05-06 17:54 52.17461 20.96489 355 ft 14 kts 62°
2026-05-06 17:54 52.17504 20.96578 358 ft 8 kts 48°
2026-05-06 17:54 52.17509 20.96588 357 ft 0 kts 51°
2026-05-06 17:54 52.17509 20.96589 362 ft 2 kts 51°
2026-05-06 17:55 52.17520 20.96654 355 ft 7 kts 110°
2026-05-06 17:55 52.17488 20.96632 355 ft 11 kts 233°
2026-05-06 17:55 52.17438 20.96601 355 ft 11 kts 165°
2026-05-06 17:55 52.17342 20.96681 358 ft 16 kts 154°
2026-05-06 17:56 52.17245 20.96765 360 ft 16 kts 151°
2026-05-06 17:56 52.17149 20.96848 361 ft 16 kts 152°
2026-05-06 17:56 52.17056 20.96932 362 ft 13 kts 153°
2026-05-06 17:56 52.16977 20.96994 358 ft 12 kts 153°
2026-05-06 17:57 52.16937 20.97053 359 ft 6 kts 90°
2026-05-06 17:57 52.16947 20.97119 360 ft 6 kts 76°
2026-05-06 17:57 52.16955 20.97169 356 ft 3 kts 75°
2026-05-06 17:57 52.16958 20.97183 357 ft 0 kts 71°